Regional Weather Roundup
Issued by NWS

Home | Current Version | Previous Version | Text Only | Print | Product List | Glossary On
Versions: 1 2 3 4 5 6 7 8 9 10 11 12 13 14 15 16 17 18 19 20 21 22 23 24 25 26 27 28 29 30 31 32 33 34 35 36 37 38 39 40 41 42 43 44 45 46 47 48 49 50
000
ASUS44 KFWD 230215
RWRTX
NORTH TEXAS HOURLY WEATHER ROUNDUP
NATIONAL WEATHER SERVICE FORT WORTH TX
900 PM CDT WED MAR 22 2017

NOTE: "FAIR" INDICATES FEW OR NO CLOUDS BELOW 12,000 FEET WITH NO
SIGNIFICANT WEATHER AND/OR OBSTRUCTIONS TO VISIBILITY.

TXZ118-119-230300-
DALLAS/FORT WORTH METROPLEX

CITY           SKY/WX    TMP DP  RH WIND       PRES   REMARKS
DFW AIRPORT    CLEAR     74  60  61 SE10      30.03R
DALLAS LOVE    CLEAR     77  60  55 S13       30.05R
FTW MEACHAM    CLEAR     76  57  51 SE14      30.03R
DAL-EXECUTIVE  CLEAR     72  61  68 SE7       30.05R
FTW-ALLIANCE   CLEAR     74  59  59 S9        30.03R
FTW-NAS-JRB    CLEAR     76  59  55 SE10      30.04R
FTW-SPINKS     CLEAR     71  58  64 SE6       30.07R
ARLINGTON      CLEAR     73  59  61 SE8       30.05R
GRAND PRAIRIE  CLEAR     73  57  56 SE7       30.06R
MESQUITE       CLEAR     69  63  79 SE7       30.07R
LANCASTER      CLEAR     67  60  77 SE6       30.06S
$$

TXZ091>094-102>105-117-120-121-131>134-230300-
NORTH CENTRAL TEXAS

CITY           SKY/WX    TMP DP  RH WIND       PRES   REMARKS
SHRMAN/DENISON CLEAR     67  62  84 E8        30.07R
GAINESVILLE    CLEAR     68  62  79 SE15      30.06R
BOWIE          CLEAR     71  62  73 SE7       30.02R
BRIDGEPORT     CLEAR     74  59  59 S10G17    30.04R
DECATUR        CLEAR     73  60  62 SE12      30.04R
DENTON         CLEAR     73  61  65 SE12      30.04R
MCKINNEY       CLEAR     69  63  81 SE8       30.06R
BONHAM         CLEAR     66  59  77 E9        30.08S
GREENVILLE     CLEAR     66  59  77 E3        30.08S
ROCKWALL       CLEAR     69  63  79 SE7       30.07R
TERRELL        CLEAR     69  61  75 E7        30.07S
WAXAHACHIE     CLEAR     71  60  68 SE3       30.06S
CLEBURNE       CLEAR     72  61  68 S9        30.07R
GRANBURY       CLEAR     75  58  55 SE7       30.05R
$$

TXZ083>090-098>101-113>116-127>130-139>142-154-155-230300-
WESTERN NORTH TEXAS

CITY           SKY/WX    TMP DP  RH WIND       PRES   REMARKS
WICHITA FALLS  CLEAR     66  61  84 E15       29.99R
WF-KICKAPOO    CLEAR     69  63  80 E10       29.99S
VERNON         CLEAR     71  51  49 E6        29.99S
ABILENE        CLEAR     72  56  57 SE15      30.01R
ABILENE-DYESS  CLEAR     75  58  54 S15       29.99R
GRAHAM         CLEAR     75  61  60 SE8       29.99R
BRECKENRIDGE   CLEAR     76  55  48 SE9       30.00R
CISCO          CLEAR     72  57  60 SE13      30.02S
RANGER         CLEAR     70  55  60 SE9       30.04R
MINERAL WELLS  CLEAR     72  58  61 SE9       30.02R
STEPHENVILLE   CLEAR     71  56  59 SE8       30.07R
COMANCHE       CLEAR     70  58  66 SE9       30.04S
BROWNWOOD      CLOUDY    73  57  56 SE10      30.04R
COLEMAN        CLEAR     73  54  52 SE10      30.04R
$$

TXZ143>147-156>162-174-175-230300-
CENTRAL TEXAS

CITY           SKY/WX    TMP DP  RH WIND       PRES   REMARKS
WACO           CLEAR     72  59  63 S9        30.05R
WACO-MCGREGOR  CLEAR     70  59  68 SE8       30.06R
HILLSBORO      CLEAR     71  60  67 SE8       30.06R
CORSICANA      CLEAR     71  60  68 SE8       30.07S
MEXIA          CLEAR     70  58  66 CALM      30.06S
HEARNE         CLEAR     73  59  60 SE5       30.08R
CAMERON        CLEAR     73  60  63 S5        30.06S
TEMPLE         CLEAR     71  60  68 SE10      30.06R
KILLEEN        CLEAR     67  59  75 SE8       30.05R
KILLEEN-SKYLRK CLEAR     72  60  66 SE8       30.06R
FORT HOOD      CLEAR     72  59  64 S8        30.03R
GATESVILLE     CLEAR     72  59  64 CALM      30.08R
HAMILTON       CLEAR     71  58  64 S8        30.06S
LAMPASAS       CLEAR     72  61  68 S7        30.05S
$$

TXZ095>097-106>112-122>126-135>138-148>153-164>167-230300-
EAST TEXAS

CITY           SKY/WX    TMP DP  RH WIND       PRES   REMARKS
PARIS          CLEAR     64  55  72 E9        30.10F
SULPHUR SPRNGS CLEAR     69  60  74 SE6       30.11S
MOUNT PLEASANT CLEAR     68  58  69 S5        30.12S
GILMER         CLEAR     66  60  80 CALM      30.11S THUNDER
MINEOLA        CLEAR     64  59  82 CALM      30.10R
TYLER          CLEAR     71  61  70 E7        30.09R
LONGVIEW       CLEAR     66  61  84 E3        30.10S
MARSHALL       CLEAR     65  59  82 CALM      30.14R
ATHENS         CLEAR     68  61  77 CALM      30.07S
PALESTINE      CLEAR     69  61  75 CALM      30.10R
JACKSONVILLE   CLEAR     70  60  70 CALM      30.12R
HENDERSON      CLEAR     69  59  70 E3        30.12R
CENTER         CLEAR     70  64  83 CALM      30.12S
NACOGDOCHES    CLEAR     63  57  82 CALM      30.09R
LUFKIN         CLEAR     67  60  78 CALM      30.10R
$$

SUPPLEMENTAL OBSERVATIONS (CENTRAL)

CITY           SKY/WX    TMP DP  RH WIND       PRES   REMARKS
DENISON DAM      N/A     66  59  77 E9          N/A
CADDO GRASSLND   N/A     66  57  72 E3          N/A
PAT MAYSE LAKE   N/A     66  59  77 NE5         N/A
GREENVILLE       N/A    N/A N/A N/A SE3         N/A
CEDAR HILL       N/A     72  59  64 SE5         N/A
ATHENS           N/A    N/A N/A N/A E6          N/A
LAKE LIMESTONE   N/A     70  59  68 SE3         N/A
MCGREGOR         N/A     73  59  60 S8          N/A
TEMPLE           N/A     72  57  60 S6          N/A
$$

SUPPLEMENTAL OBSERVATIONS (WEST)

CITY           SKY/WX    TMP DP  RH WIND       PRES   REMARKS
MILLERS CREEK    N/A     73  59  60 SE9         N/A
POSSUM KINGDOM   N/A     75  57  53 SE10        N/A
LBJ GRASSLAND    N/A     73  59  60 SE9         N/A
GRANBURY         N/A     73  55  53 SE9         N/A
COMANCHE         N/A     70  55  60 SE12        N/A
HAMBY            N/A     73  55  53 SE7         N/A
IVIE RESERVOIR   N/A     72  55  56 SE6G15      N/A
COLORADO BEND    N/A     70  55  60 SW5         N/A
$$

SUPPLEMENTAL OBSERVATIONS (EAST)

CITY           SKY/WX    TMP DP  RH WIND       PRES   REMARKS
CLARKSVILLE      N/A     66  55  68 E6          N/A
TEXARKANA        N/A     64  50  59 NE7G15      N/A
LINDEN           N/A     66  57  72 E1          N/A
CADDO LAKE       N/A     61  59  94 CALM        N/A
GILMER           N/A     66  61  82 CALM        N/A
HENDERSON        N/A     70  59  68 E5          N/A
LUFKIN           N/A     66  61  82 MISG        N/A
N SABINE NF      N/A     66  61  82 MISG        N/A
S SABINE NF      N/A     64  59  82 CALM        N/A
$$

SUPPLEMENTAL OBSERVATIONS ARE A COLLECTION OF AUTOMATED INSTRUMENTS
THAT ARE MAINTAINED BY A VARIETY OF FEDERAL AND STATE AGENCIES.
CERTAIN ELEMENTS...SUCH AS HUMIDITY VALUES AND SUSTAINED WIND
SPEEDS...MAY BE APPROXIMATED.





USA.gov is the U.S. government's official web portal to all federal, state and local government web resources and services.